QPF
0.00 0.00 0.00 0.00 0.00 0.00 0.00 0.01 0.01 0.00 0.00 0.00 0.00 0.00 0.00 0.00 0.00 0.00 0.00 0.00 0.00 0.00 0.00 0.01 0.00 0.01 0.01 0.02 0.04 0.04 0.05 0.05 0.03 0.03 0.02 0.02 0.02 0.03 0.02 0.01 0.01 0.01 0.01 0.00
0.00 0.00 0.00 0.00 0.00 0.00 0.00 0.00 0.00 0.00 0.00 0.00 0.00 0.00 0.00 0.00 0.00 0.00 0.00 0.00 0.00 0.00 0.01 0.01 0.01 0.02 0.03 0.04 0.05 0.06 0.04 0.02 0.03 0.03 0.03 0.02 0.02 0.03 0.03 0.01 0.01 0.01 0.00 0.01
0.00 0.00 0.00 0.00 0.00 0.00 0.00 0.00 0.00 0.00 0.00 0.00 0.00 0.00 0.00 0.00 0.00 0.00 0.00 0.00 0.00 0.00 0.01 0.02 0.02 0.04 0.05 0.04 0.03 0.06 0.04 0.03 0.03 0.02 0.02 0.02 0.03 0.03 0.02 0.02 0.01 0.01 0.01 0.01
0.00 0.00 0.00 0.00 0.00 0.00 0.00 0.00 0.00 0.01 0.00 0.01 0.01 0.00 0.00 0.00 0.00 0.00 0.00 0.00 0.01 0.01 0.01 0.02 0.01 0.02 0.03 0.03 0.03 0.05 0.05 0.04 0.04 0.04 0.02 0.03 0.04 0.03 0.01 0.01 0.01 0.01 0.02 0.02
0.00 0.01 0.00 0.00 0.00 0.00 0.00 0.00 0.01 0.01 0.00 0.00 0.01 0.01 0.00 0.00 0.00 0.00 0.00 0.01 0.01 0.02 0.02 0.02 0.02 0.02 0.03 0.03 0.02 0.02 0.02 0.02 0.02 0.03 0.03 0.03 0.03 0.03 0.02 0.02 0.01 0.01 0.01 0.01
0.00 0.01 0.00 0.00 0.00 0.00 0.00 0.00 0.01 0.01 0.00 0.00 0.00 0.01 0.01 0.01 0.01 0.01 0.01 0.01 0.01 0.01 0.02 0.03 0.03 0.02 0.03 0.01 0.01 0.01 0.01 0.02 0.01 0.01 0.01 0.01 0.01 0.02 0.02 0.02 0.03 0.03 0.02 0.02
0.01 0.01 0.01 0.00 0.00 0.00 0.00 0.00 0.00 0.00 0.01 0.01 0.01 0.01 0.01 0.01 0.02 0.02 0.02 0.01 0.01 0.01 0.02 0.02 0.02 0.01 0.01 0.01 0.01 0.02 0.02 0.02 0.01 0.02 0.02 0.02 0.02 0.02 0.02 0.02 0.03 0.04 0.05 0.04
0.01 0.01 0.00 0.00 0.00 0.00 0.00 0.01 0.01 0.01 0.01 0.02 0.02 0.02 0.02 0.02 0.01 0.01 0.01 0.01 0.01 0.01 0.01 0.02 0.01 0.01 0.01 0.01 0.02 0.03 0.02 0.02 0.02 0.03 0.03 0.02 0.02 0.02 0.02 0.02 0.02 0.02 0.06 0.10
0.01 0.00 0.00 0.00 0.00 0.01 0.01 0.01 0.01 0.01 0.02 0.02 0.03 0.03 0.02 0.02 0.01 0.01 0.01 0.01 0.02 0.02 0.02 0.02 0.01 0.01 0.02 0.02 0.02 0.02 0.03 0.03 0.03 0.04 0.03 0.02 0.02 0.03 0.03 0.02 0.02 0.01 0.02 0.04
0.01 0.00 0.00 0.00 0.00 0.01 0.01 0.01 0.01 0.02 0.02 0.03 0.03 0.02 0.02 0.01 0.01 0.01 0.01 0.02 0.02 0.02 0.02 0.02 0.01 0.02 0.02 0.03 0.03 0.03 0.02 0.03 0.03 0.03 0.03 0.02 0.02 0.03 0.04 0.04 0.02 0.01 0.01 0.02
0.01 0.01 0.00 0.00 0.00 0.01 0.01 0.01 0.01 0.01 0.01 0.01 0.02 0.03 0.02 0.02 0.01 0.02 0.03 0.03 0.04 0.03 0.02 0.02 0.02 0.02 0.02 0.02 0.04 0.04 0.03 0.03 0.03 0.02 0.02 0.02 0.02 0.02 0.03 0.03 0.02 0.02 0.01 0.01
0.00 0.00 0.00 0.00 0.00 0.00 0.00 0.00 0.01 0.01 0.01 0.01 0.02 0.02 0.03 0.02 0.02 0.02 0.03 0.05 0.05 0.06 0.05 0.04 0.03 0.03 0.03 0.03 0.04 0.05 0.05 0.04 0.04 0.03 0.03 0.02 0.02 0.02 0.02 0.02 0.02 0.02 0.02 0.01
0.01 0.01 0.00 0.00 0.01 0.00 0.00 0.01 0.01 0.01 0.01 0.01 0.02 0.02 0.03 0.04 0.04 0.04 0.04 0.05 0.08 0.08 0.08 0.07 0.06 0.06 0.05 0.05 0.04 0.04 0.04 0.04 0.04 0.03 0.03 0.02 0.02 0.02 0.02 0.01 0.01 0.01 0.01 0.01
0.00 0.01 0.01 0.01 0.01 0.01 0.00 0.01 0.01 0.01 0.01 0.01 0.02 0.02 0.02 0.03 0.05 0.05 0.05 0.04 0.07 0.10 0.10 0.10 0.09 0.07 0.06 0.05 0.06 0.05 0.04 0.03 0.04 0.04 0.04 0.03 0.02 0.02 0.01 0.01 0.01 0.01 0.01 0.02
0.01 0.01 0.01 0.01 0.01 0.01 0.01 0.01 0.01 0.01 0.01 0.02 0.02 0.02 0.03 0.03 0.04 0.05 0.05 0.06 0.08 0.09 0.10 0.10 0.11 0.10 0.08 0.08 0.09 0.07 0.05 0.03 0.03 0.03 0.03 0.03 0.03 0.02 0.02 0.02 0.02 0.02 0.02 0.03
0.01 0.02 0.02 0.01 0.01 0.01 0.01 0.01 0.01 0.01 0.01 0.02 0.02 0.03 0.03 0.04 0.06 0.06 0.06 0.06 0.08 0.10 0.08 0.07 0.08 0.08 0.09 0.09 0.08 0.07 0.06 0.05 0.05 0.04 0.03 0.03 0.02 0.02 0.02 0.02 0.02 0.02 0.02 0.03
0.03 0.03 0.03 0.02 0.01 0.01 0.01 0.01 0.01 0.01 0.01 0.01 0.01 0.03 0.05 0.04 0.04 0.06 0.09 0.10 0.11 0.12 0.12 0.10 0.09 0.09 0.10 0.12 0.11 0.09 0.08 0.07 0.06 0.04 0.03 0.03 0.03 0.02 0.02 0.02 0.02 0.02 0.02 0.02
0.03 0.03 0.03 0.03 0.02 0.01 0.01 0.02 0.03 0.03 0.02 0.01 0.01 0.04 0.06 0.05 0.05 0.05 0.08 0.10 0.11 0.11 0.11 0.10 0.08 0.06 0.07 0.09 0.10 0.09 0.08 0.07 0.06 0.05 0.04 0.04 0.03 0.03 0.03 0.03 0.02 0.02 0.02 0.02
0.03 0.03 0.03 0.04 0.03 0.02 0.02 0.02 0.05 0.06 0.05 0.04 0.04 0.05 0.07 0.06 0.04 0.05 0.05 0.05 0.05 0.06 0.06 0.06 0.06 0.06 0.05 0.05 0.07 0.07 0.07 0.06 0.05 0.05 0.05 0.04 0.03 0.03 0.03 0.02 0.02 0.02 0.03 0.03
0.04 0.04 0.04 0.04 0.03 0.03 0.03 0.04 0.05 0.06 0.05 0.05 0.06 0.05 0.07 0.06 0.04 0.04 0.05 0.04 0.03 0.03 0.04 0.04 0.05 0.06 0.07 0.08 0.10 0.09 0.07 0.07 0.06 0.06 0.05 0.04 0.04 0.03 0.03 0.02 0.02 0.02 0.02 0.02
0.04 0.04 0.04 0.05 0.04 0.03 0.04 0.04 0.04 0.05 0.04 0.04 0.07 0.07 0.06 0.06 0.06 0.06 0.06 0.05 0.04 0.04 0.04 0.03 0.04 0.06 0.09 0.11 0.14 0.14 0.11 0.10 0.09 0.08 0.07 0.05 0.04 0.03 0.03 0.02 0.02 0.02 0.02 0.02
0.03 0.05 0.04 0.04 0.04 0.04 0.04 0.05 0.06 0.08 0.09 0.06 0.07 0.08 0.07 0.07 0.05 0.04 0.04 0.04 0.03 0.03 0.03 0.03 0.04 0.04 0.06 0.09 0.12 0.14 0.14 0.13 0.12 0.11 0.09 0.07 0.06 0.05 0.04 0.03 0.02 0.02 0.02 0.02
0.03 0.04 0.04 0.04 0.05 0.05 0.04 0.04 0.06 0.07 0.08 0.08 0.08 0.09 0.08 0.07 0.05 0.04 0.02 0.02 0.02 0.02 0.02 0.02 0.03 0.03 0.03 0.03 0.04 0.07 0.12 0.11 0.09 0.10 0.10 0.08 0.07 0.06 0.05 0.04 0.03 0.02 0.02 0.02
0.03 0.03 0.03 0.04 0.05 0.05 0.04 0.04 0.05 0.06 0.09 0.10 0.09 0.08 0.06 0.05 0.04 0.03 0.02 0.02 0.02 0.02 0.02 0.03 0.03 0.02 0.02 0.02 0.03 0.07 0.12 0.10 0.07 0.06 0.05 0.05 0.05 0.05 0.05 0.04 0.04 0.03 0.03 0.03
0.03 0.05 0.04 0.04 0.04 0.05 0.05 0.06 0.08 0.09 0.07 0.06 0.05 0.05 0.05 0.04 0.03 0.01 0.01 0.02 0.02 0.03 0.03 0.04 0.02 0.02 0.01 0.01 0.02 0.05 0.10 0.10 0.09 0.08 0.07 0.05 0.04 0.04 0.05 0.04 0.04 0.03 0.03 0.03
0.03 0.03 0.04 0.03 0.04 0.05 0.07 0.08 0.09 0.10 0.07 0.05 0.04 0.04 0.03 0.03 0.02 0.01 0.02 0.02 0.03 0.04 0.04 0.04 0.02 0.01 0.01 0.01 0.01 0.03 0.05 0.05 0.04 0.05 0.06 0.06 0.06 0.06 0.06 0.05 0.04 0.03 0.02 0.02
0.02 0.02 0.03 0.03 0.03 0.04 0.06 0.07 0.08 0.07 0.06 0.05 0.04 0.03 0.03 0.03 0.02 0.02 0.03 0.04 0.04 0.04 0.04 0.04 0.03 0.02 0.01 0.01 0.01 0.02 0.03 0.04 0.04 0.03 0.04 0.04 0.04 0.04 0.05 0.05 0.04 0.03 0.02 0.02
MSLP
1010.02 1010.05 1010.16 1010.35 1010.58 1010.81 1010.96 1010.95 1010.74 1010.28 1009.60 1008.73 1007.74 1006.73 1005.78 1004.97 1004.36 1003.96 1003.76 1003.73 1003.81 1003.97 1004.15 1004.34 1004.53 1004.73 1004.97 1005.27 1005.64 1006.08 1006.58 1007.13 1007.69 1008.23 1008.75 1009.23 1009.67 1010.09 1010.50 1010.92 1011.36 1011.80 1012.26 1012.69
1010.37 1010.35 1010.35 1010.39 1010.45 1010.49 1010.48 1010.37 1010.12 1009.71 1009.13 1008.41 1007.59 1006.73 1005.90 1005.16 1004.54 1004.07 1003.75 1003.57 1003.51 1003.54 1003.62 1003.76 1003.94 1004.17 1004.46 1004.80 1005.20 1005.66 1006.15 1006.67 1007.20 1007.71 1008.19 1008.66 1009.12 1009.57 1010.03 1010.51 1011.00 1011.50 1011.99 1012.46
1010.78 1010.73 1010.66 1010.59 1010.52 1010.43 1010.31 1010.13 1009.86 1009.48 1008.97 1008.35 1007.64 1006.87 1006.09 1005.34 1004.66 1004.08 1003.61 1003.27 1003.05 1002.95 1002.95 1003.05 1003.24 1003.51 1003.86 1004.27 1004.72 1005.22 1005.72 1006.23 1006.73 1007.22 1007.69 1008.15 1008.61 1009.09 1009.58 1010.09 1010.62 1011.14 1011.64 1012.10
1011.22 1011.15 1011.04 1010.90 1010.75 1010.59 1010.40 1010.18 1009.90 1009.54 1009.08 1008.51 1007.85 1007.10 1006.31 1005.50 1004.71 1003.98 1003.34 1002.83 1002.46 1002.23 1002.16 1002.23 1002.44 1002.76 1003.17 1003.65 1004.18 1004.72 1005.26 1005.78 1006.28 1006.76 1007.23 1007.69 1008.16 1008.64 1009.15 1009.68 1010.21 1010.72 1011.21 1011.64
1011.61 1011.52 1011.39 1011.22 1011.03 1010.83 1010.62 1010.38 1010.10 1009.76 1009.32 1008.78 1008.12 1007.35 1006.50 1005.59 1004.67 1003.78 1002.98 1002.30 1001.78 1001.44 1001.30 1001.34 1001.56 1001.93 1002.41 1002.97 1003.57 1004.17 1004.76 1005.31 1005.84 1006.33 1006.81 1007.28 1007.76 1008.26 1008.77 1009.29 1009.81 1010.29 1010.73 1011.11
1011.88 1011.77 1011.62 1011.44 1011.24 1011.04 1010.83 1010.60 1010.33 1010.00 1009.57 1009.03 1008.35 1007.54 1006.61 1005.60 1004.55 1003.52 1002.56 1001.73 1001.08 1000.64 1000.43 1000.45 1000.68 1001.08 1001.61 1002.24 1002.90 1003.57 1004.21 1004.82 1005.38 1005.91 1006.42 1006.92 1007.43 1007.94 1008.46 1008.97 1009.46 1009.90 1010.29 1010.60
1011.98 1011.84 1011.67 1011.48 1011.29 1011.10 1010.91 1010.70 1010.45 1010.14 1009.72 1009.18 1008.48 1007.62 1006.63 1005.54 1004.38 1003.23 1002.15 1001.20 1000.45 999.93 999.66 999.64 999.86 1000.27 1000.84 1001.50 1002.22 1002.94 1003.64 1004.30 1004.92 1005.50 1006.06 1006.61 1007.15 1007.69 1008.22 1008.72 1009.18 1009.59 1009.92 1010.17
1011.86 1011.68 1011.50 1011.31 1011.13 1010.97 1010.80 1010.62 1010.40 1010.11 1009.70 1009.17 1008.46 1007.59 1006.57 1005.42 1004.20 1002.98 1001.82 1000.80 999.97 999.38 999.06 999.00 999.19 999.59 1000.16 1000.84 1001.57 1002.33 1003.07 1003.78 1004.46 1005.10 1005.72 1006.32 1006.90 1007.47 1008.02 1008.52 1008.97 1009.34 1009.63 1009.83
1011.54 1011.32 1011.11 1010.92 1010.76 1010.62 1010.48 1010.33 1010.14 1009.88 1009.51 1008.99 1008.31 1007.45 1006.43 1005.29 1004.06 1002.82 1001.64 1000.58 999.72 999.09 998.72 998.61 998.76 999.12 999.65 1000.31 1001.03 1001.79 1002.55 1003.29 1004.01 1004.70 1005.36 1006.01 1006.64 1007.25 1007.82 1008.33 1008.77 1009.12 1009.38 1009.56
1011.04 1010.78 1010.55 1010.36 1010.21 1010.09 1009.98 1009.86 1009.71 1009.48 1009.15 1008.68 1008.04 1007.23 1006.27 1005.18 1004.00 1002.80 1001.65 1000.61 999.74 999.09 998.68 998.53 998.62 998.92 999.38 999.98 1000.66 1001.39 1002.13 1002.87 1003.59 1004.30 1005.00 1005.67 1006.33 1006.96 1007.54 1008.06 1008.51 1008.86 1009.12 1009.28
1010.39 1010.10 1009.86 1009.67 1009.53 1009.42 1009.33 1009.24 1009.12 1008.94 1008.65 1008.24 1007.68 1006.96 1006.10 1005.10 1004.03 1002.93 1001.85 1000.87 1000.04 999.40 998.98 998.78 998.80 999.02 999.40 999.91 1000.51 1001.17 1001.85 1002.54 1003.23 1003.92 1004.61 1005.28 1005.93 1006.56 1007.14 1007.66 1008.11 1008.48 1008.74 1008.92
1009.63 1009.33 1009.09 1008.90 1008.75 1008.66 1008.58 1008.51 1008.42 1008.28 1008.05 1007.71 1007.25 1006.64 1005.91 1005.06 1004.13 1003.17 1002.22 1001.34 1000.58 999.98 999.55 999.33 999.29 999.42 999.71 1000.11 1000.60 1001.15 1001.73 1002.34 1002.96 1003.58 1004.20 1004.83 1005.44 1006.03 1006.59 1007.10 1007.54 1007.91 1008.19 1008.39
1008.81 1008.50 1008.25 1008.06 1007.92 1007.82 1007.75 1007.69 1007.61 1007.51 1007.34 1007.08 1006.72 1006.25 1005.67 1004.98 1004.23 1003.43 1002.64 1001.90 1001.24 1000.70 1000.30 1000.06 999.98 1000.04 1000.23 1000.52 1000.89 1001.32 1001.78 1002.27 1002.77 1003.29 1003.82 1004.35 1004.88 1005.40 1005.90 1006.37 1006.79 1007.16 1007.45 1007.68
1007.93 1007.63 1007.37 1007.17 1007.02 1006.91 1006.82 1006.76 1006.70 1006.62 1006.50 1006.33 1006.08 1005.74 1005.31 1004.81 1004.24 1003.63 1003.01 1002.41 1001.88 1001.42 1001.08 1000.86 1000.75 1000.76 1000.87 1001.06 1001.32 1001.62 1001.95 1002.31 1002.68 1003.07 1003.47 1003.88 1004.30 1004.73 1005.15 1005.55 1005.93 1006.28 1006.57 1006.82
1007.03 1006.72 1006.46 1006.24 1006.06 1005.92 1005.82 1005.73 1005.67 1005.60 1005.53 1005.42 1005.27 1005.06 1004.79 1004.45 1004.06 1003.64 1003.19 1002.76 1002.35 1002.01 1001.73 1001.54 1001.44 1001.43 1001.48 1001.60 1001.77 1001.97 1002.19 1002.42 1002.66 1002.92 1003.18 1003.46 1003.76 1004.07 1004.39 1004.72 1005.05 1005.35 1005.64 1005.88
1006.13 1005.82 1005.53 1005.28 1005.06 1004.88 1004.73 1004.62 1004.53 1004.47 1004.42 1004.36 1004.29 1004.19 1004.05 1003.87 1003.65 1003.39 1003.11 1002.82 1002.55 1002.31 1002.12 1001.99 1001.92 1001.91 1001.95 1002.03 1002.14 1002.27 1002.40 1002.54 1002.68 1002.82 1002.96 1003.12 1003.30 1003.50 1003.72 1003.97 1004.23 1004.49 1004.74 1004.97
1005.30 1004.96 1004.64 1004.35 1004.07 1003.83 1003.62 1003.46 1003.34 1003.26 1003.21 1003.19 1003.18 1003.16 1003.13 1003.07 1002.98 1002.86 1002.72 1002.56 1002.41 1002.28 1002.17 1002.11 1002.08 1002.10 1002.15 1002.23 1002.33 1002.43 1002.52 1002.60 1002.67 1002.74 1002.80 1002.86 1002.95 1003.05 1003.19 1003.35 1003.54 1003.75 1003.97 1004.17
1004.61 1004.23 1003.86 1003.50 1003.16 1002.84 1002.57 1002.34 1002.17 1002.05 1001.99 1001.98 1002.00 1002.04 1002.07 1002.10 1002.11 1002.10 1002.06 1002.01 1001.95 1001.91 1001.88 1001.88 1001.91 1001.97 1002.06 1002.17 1002.28 1002.39 1002.48 1002.56 1002.61 1002.63 1002.65 1002.66 1002.68 1002.72 1002.79 1002.89 1003.02 1003.17 1003.34 1003.51
1004.13 1003.71 1003.28 1002.84 1002.42 1002.02 1001.66 1001.36 1001.13 1000.96 1000.87 1000.85 1000.87 1000.93 1001.01 1001.09 1001.16 1001.21 1001.24 1001.25 1001.26 1001.27 1001.30 1001.35 1001.44 1001.55 1001.68 1001.83 1001.99 1002.14 1002.26 1002.36 1002.42 1002.46 1002.47 1002.46 1002.46 1002.46 1002.48 1002.53 1002.61 1002.72 1002.84 1002.96
1003.90 1003.43 1002.94 1002.43 1001.92 1001.44 1001.00 1000.62 1000.32 1000.10 999.97 999.91 999.93 999.98 1000.07 1000.17 1000.26 1000.33 1000.39 1000.44 1000.48 1000.52 1000.58 1000.67 1000.79 1000.94 1001.11 1001.31 1001.51 1001.70 1001.87 1002.01 1002.11 1002.18 1002.20 1002.21 1002.20 1002.18 1002.18 1002.20 1002.24 1002.30 1002.37 1002.44
1003.91 1003.41 1002.86 1002.28 1001.70 1001.14 1000.63 1000.18 999.81 999.53 999.35 999.26 999.24 999.28 999.35 999.44 999.53 999.61 999.67 999.72 999.76 999.81 999.88 999.98 1000.11 1000.27 1000.47 1000.70 1000.93 1001.15 1001.36 1001.54 1001.68 1001.77 1001.82 1001.84 1001.84 1001.82 1001.81 1001.80 1001.80 1001.82 1001.84 1001.87
1004.12 1003.59 1003.00 1002.37 1001.74 1001.11 1000.54 1000.03 999.61 999.28 999.05 998.92 998.87 998.87 998.92 998.99 999.05 999.11 999.16 999.19 999.22 999.26 999.31 999.40 999.52 999.68 999.87 1000.10 1000.33 1000.57 1000.79 1000.98 1001.14 1001.25 1001.31 1001.34 1001.34 1001.31 1001.28 1001.25 1001.22 1001.20 1001.18 1001.16
1004.43 1003.88 1003.27 1002.61 1001.94 1001.29 1000.67 1000.12 999.66 999.30 999.03 998.86 998.77 998.75 998.76 998.80 998.84 998.88 998.90 998.91 998.92 998.93 998.96 999.02 999.11 999.24 999.40 999.60 999.81 1000.02 1000.22 1000.39 1000.54 1000.63 1000.69 1000.70 1000.68 1000.64 1000.59 1000.53 1000.47 1000.42 1000.36 1000.30
1004.69 1004.15 1003.55 1002.90 1002.22 1001.56 1000.93 1000.37 999.88 999.49 999.20 999.00 998.89 998.83 998.82 998.82 998.84 998.85 998.85 998.84 998.83 998.82 998.82 998.84 998.89 998.98 999.10 999.24 999.39 999.55 999.70 999.82 999.91 999.97 999.98 999.96 999.91 999.84 999.76 999.67 999.58 999.50 999.41 999.32
1004.80 1004.30 1003.72 1003.10 1002.46 1001.81 1001.20 1000.64 1000.16 999.76 999.46 999.24 999.10 999.01 998.97 998.96 998.96 998.95 998.94 998.91 998.88 998.86 998.84 998.83 998.84 998.88 998.94 999.02 999.10 999.18 999.25 999.29 999.31 999.30 999.25 999.18 999.08 998.97 998.85 998.73 998.62 998.51 998.41 998.30
1004.67 1004.22 1003.71 1003.14 1002.55 1001.95 1001.38 1000.86 1000.39 1000.00 999.69 999.46 999.30 999.20 999.13 999.10 999.08 999.06 999.05 999.02 998.99 998.95 998.92 998.90 998.89 998.88 998.89 998.90 998.90 998.90 998.88 998.84 998.77 998.67 998.56 998.42 998.27 998.12 997.97 997.82 997.69 997.57 997.46 997.35
1004.28 1003.90 1003.46 1002.98 1002.46 1001.94 1001.43 1000.95 1000.52 1000.14 999.84 999.60 999.42 999.30 999.21 999.16 999.13 999.10 999.08 999.06 999.04 999.02 998.99 998.96 998.93 998.90 998.86 998.82 998.76 998.68 998.58 998.46 998.31 998.14 997.96 997.76 997.57 997.38 997.20 997.04 996.89 996.77 996.66 996.55
Thickness
5738 5749 5752 5756 5756 5755 5753 5746 5741 5749 5755 5773 5782 5789 5793 5795 5795 5795 5796 5797 5797 5796 5796 5796 5794 5792 5790 5787 5784 5780 5775 5771 5769 5767 5764 5762 5759 5757 5754 5751 5749 5746 5743 5741
5731 5742 5746 5747 5751 5751 5752 5751 5750 5754 5757 5775 5782 5785 5787 5789 5789 5789 5791 5793 5793 5793 5792 5791 5790 5789 5787 5783 5780 5777 5771 5768 5766 5763 5760 5758 5756 5754 5751 5748 5745 5742 5740 5738
5708 5726 5734 5725 5741 5744 5747 5751 5750 5746 5758 5770 5773 5776 5779 5782 5784 5786 5788 5789 5789 5789 5789 5788 5787 5785 5783 5781 5777 5773 5769 5766 5763 5761 5758 5755 5753 5750 5747 5745 5742 5739 5737 5734
5692 5708 5699 5724 5746 5748 5745 5745 5749 5753 5758 5763 5769 5774 5778 5780 5779 5780 5783 5784 5785 5785 5785 5784 5784 5782 5780 5777 5773 5769 5766 5762 5760 5757 5755 5752 5749 5746 5743 5740 5737 5735 5733 5731
5677 5684 5697 5719 5735 5738 5734 5733 5743 5745 5751 5757 5764 5766 5768 5774 5775 5777 5778 5780 5781 5782 5781 5779 5778 5777 5775 5771 5768 5764 5761 5759 5756 5754 5750 5747 5744 5741 5739 5736 5733 5731 5729 5727
5670 5677 5679 5707 5731 5740 5733 5721 5738 5741 5743 5746 5751 5743 5752 5766 5768 5771 5773 5774 5775 5776 5775 5773 5772 5770 5767 5764 5761 5759 5758 5755 5752 5749 5746 5743 5740 5737 5734 5731 5728 5726 5724 5721
5663 5669 5681 5708 5722 5728 5708 5714 5733 5736 5737 5737 5738 5742 5751 5757 5760 5763 5765 5767 5769 5768 5767 5766 5765 5763 5759 5757 5755 5755 5752 5749 5747 5744 5741 5738 5735 5732 5728 5725 5722 5720 5717 5715
5652 5658 5672 5705 5710 5705 5707 5720 5725 5728 5731 5732 5734 5740 5744 5748 5752 5755 5757 5759 5760 5760 5759 5759 5758 5756 5753 5751 5751 5749 5746 5743 5740 5737 5735 5733 5728 5726 5722 5718 5715 5712 5710 5709
5657 5666 5684 5694 5699 5705 5708 5710 5716 5720 5724 5727 5728 5732 5735 5739 5742 5746 5748 5749 5750 5750 5750 5752 5751 5750 5746 5745 5743 5741 5738 5735 5733 5730 5728 5725 5722 5719 5715 5711 5708 5706 5704 5703
5654 5667 5677 5685 5692 5699 5702 5704 5709 5714 5717 5719 5720 5724 5726 5728 5731 5735 5737 5739 5740 5740 5740 5741 5742 5742 5741 5739 5736 5733 5729 5727 5725 5722 5719 5717 5714 5712 5708 5704 5702 5700 5699 5698
5647 5659 5667 5677 5682 5688 5694 5698 5701 5705 5709 5711 5713 5714 5717 5719 5722 5725 5727 5729 5730 5730 5731 5731 5732 5732 5732 5731 5728 5725 5722 5718 5716 5713 5711 5708 5706 5704 5701 5699 5697 5695 5694 5693
5641 5651 5654 5662 5672 5680 5683 5687 5692 5695 5699 5703 5704 5705 5708 5710 5712 5715 5716 5717 5719 5719 5720 5721 5722 5722 5722 5721 5720 5716 5712 5710 5708 5705 5703 5701 5698 5695 5694 5692 5690 5689 5688 5686
5642 5649 5652 5659 5666 5672 5675 5680 5685 5688 5691 5694 5696 5698 5699 5700 5703 5705 5706 5707 5708 5708 5709 5710 5711 5712 5712 5711 5709 5707 5704 5703 5701 5698 5696 5694 5691 5689 5686 5685 5683 5682 5681 5679
5638 5642 5645 5652 5657 5664 5669 5673 5678 5681 5683 5686 5688 5689 5690 5691 5693 5694 5696 5697 5698 5699 5700 5700 5700 5701 5701 5700 5698 5697 5696 5695 5694 5693 5691 5688 5686 5684 5682 5679 5677 5676 5675 5673
5632 5636 5640 5647 5652 5657 5662 5665 5668 5671 5674 5675 5678 5679 5680 5681 5682 5685 5686 5688 5689 5689 5689 5690 5690 5690 5691 5691 5689 5687 5686 5686 5686 5685 5683 5681 5678 5676 5675 5673 5671 5670 5668 5667
5626 5631 5635 5640 5645 5649 5653 5656 5659 5662 5665 5667 5668 5669 5670 5672 5673 5675 5677 5678 5677 5678 5679 5680 5681 5682 5683 5681 5679 5678 5677 5677 5676 5674 5673 5671 5669 5668 5667 5665 5664 5663 5662 5660
5619 5623 5628 5632 5637 5642 5646 5649 5652 5654 5657 5659 5661 5662 5662 5662 5663 5665 5667 5669 5670 5670 5672 5673 5673 5674 5675 5673 5672 5670 5669 5669 5668 5666 5664 5663 5662 5661 5660 5658 5657 5656 5655 5654
5618 5623 5627 5630 5633 5636 5640 5643 5646 5647 5649 5652 5654 5654 5654 5655 5656 5657 5659 5660 5661 5662 5664 5665 5666 5667 5667 5666 5664 5663 5662 5660 5659 5658 5657 5655 5654 5654 5653 5652 5651 5649 5648 5645
5615 5619 5623 5626 5629 5632 5634 5637 5639 5641 5643 5644 5646 5647 5648 5649 5650 5650 5651 5651 5653 5654 5656 5658 5658 5658 5658 5658 5657 5655 5654 5654 5652 5650 5649 5648 5647 5646 5646 5645 5643 5642 5640 5638
5611 5615 5618 5621 5625 5627 5628 5631 5634 5635 5636 5637 5638 5639 5640 5642 5643 5643 5643 5644 5647 5650 5651 5651 5650 5650 5650 5650 5648 5648 5647 5646 5645 5644 5642 5641 5639 5638 5638 5637 5635 5634 5633 5631
5605 5609 5612 5615 5618 5621 5622 5624 5626 5627 5628 5629 5630 5631 5633 5635 5636 5636 5635 5636 5641 5643 5643 5643 5643 5643 5643 5642 5641 5640 5639 5638 5637 5636 5634 5633 5632 5631 5630 5629 5628 5627 5625 5624
5600 5603 5606 5608 5610 5612 5614 5616 5618 5619 5621 5622 5623 5624 5624 5626 5627 5627 5628 5630 5633 5633 5635 5636 5637 5637 5637 5635 5634 5633 5631 5630 5629 5629 5628 5626 5625 5624 5623 5622 5620 5619 5617 5617
5595 5598 5600 5601 5602 5603 5605 5607 5609 5611 5613 5614 5615 5615 5616 5617 5619 5620 5620 5622 5624 5625 5627 5629 5629 5629 5629 5628 5627 5626 5625 5624 5623 5622 5620 5619 5618 5617 5616 5615 5613 5611 5610 5608
5589 5591 5593 5594 5596 5596 5596 5599 5600 5602 5604 5605 5607 5609 5609 5610 5611 5613 5614 5615 5616 5618 5620 5621 5620 5621 5620 5620 5619 5618 5617 5616 5615 5614 5613 5612 5611 5610 5609 5607 5605 5603 5602 5600
5584 5586 5588 5589 5589 5589 5590 5592 5594 5596 5598 5599 5601 5603 5604 5605 5605 5607 5608 5609 5610 5611 5612 5613 5612 5612 5612 5612 5611 5610 5609 5609 5608 5608 5606 5605 5604 5603 5601 5599 5597 5594 5593 5591
5578 5579 5581 5583 5584 5583 5584 5586 5587 5589 5591 5593 5594 5596 5598 5599 5600 5601 5601 5602 5603 5603 5604 5604 5604 5603 5603 5603 5603 5602 5602 5602 5601 5600 5598 5597 5597 5596 5594 5591 5588 5586 5584 5583
5573 5574 5575 5577 5578 5579 5580 5581 5583 5584 5585 5586 5587 5589 5591 5593 5593 5594 5594 5595 5595 5595 5595 5595 5595 5594 5594 5594 5594 5594 5593 5593 5592 5591 5590 5589 5588 5587 5586 5583 5581 5578 5576 5575